Simultaneous Nadir Overpasses (SNOs) Predictions

Prediction of SNOs between GOES-16 and LANDSAT-8 Satellite Orbit:

Table of predicted SNOs for the next 14.0 days since TLE Epoch: 10/21/2023
Index Date Time (GOES-16) GOES-16 Lat,Lon LANDSAT-8 Lat,Lon Distance(km) Time Diff (sec)
1 10/21/2023 03:18:35 0.06, -75.20 0.00, -76.19 110.09 80
2 10/23/2023 03:03:43 0.05, -75.21 0.50, -73.21 227.66 80
3 10/23/2023 15:24:58 -0.05, -75.23 0.64, -78.36 356.96 80
4 10/25/2023 15:12:48 -0.05, -75.24 -0.01, -75.41 19.27 80
5 10/27/2023 15:03:17 -0.05, -75.27 -0.63, -72.46 319.30 80
6 10/28/2023 03:24:41 0.05, -75.26 -0.49, -77.64 271.74 80
7 10/30/2023 03:09:50 0.04, -75.29 0.16, -74.69 67.65 80
8 11/01/2023 02:57:38 0.04, -75.32 0.78, -71.73 407.58 80
9 11/01/2023 15:18:54 -0.04, -75.34 0.28, -76.89 176.32 80
10 11/03/2023 15:09:22 -0.03, -75.38 -0.36, -73.93 164.59 80
